#timestamp,LO_Frequency,Hit,StdDev 
1624327215.9,286046997.2,N
1624327235.7,286046997.0,N
1624327255.6,286046995.7,Y
1624327275.4,286046999.2,P
1624327295.2,286046998.7,N
1624327315.1,286047001.1,N
1624327316.0,286047001.1,N
1624327335.8,286046999.6,N
1624327355.7,286046997.5,N
1624327375.5,286046997.1,N
1624327395.3,286046999.4,N
1624327415.2,286046998.7,N
1624327435.0,286046998.1,N
1624327435.9,286046998.1,N
1624327455.8,286047001.2,N
1624327475.6,286047000.7,N
1624327495.4,286047000.9,N
1624327515.3,286046998.2,N
1624327535.1,286046998.4,N
1624327555.8,286046998.8,N
1624327575.7,286046998.3,N
1624327595.5,286046998.8,N
1624327615.4,286046998.8,N
1624327635.2,286047001.0,N
1624327655.0,286047001.2,N
1624327655.9,286047001.2,N
1624327675.8,286046998.7,N
1624327695.6,286046999.3,N
1624327715.4,286046999.3,N
1624327735.3,286046999.1,N
1624327755.1,286046997.3,N
1624327775.9,286046994.9,Y
1624327795.7,286046997.2,P
1624327815.5,286046995.5,P
1624327835.4,286046995.6,N
1624327855.2,286046997.2,N
1624327875.1,286046997.6,N
1624327876.0,286046997.6,N
1624327895.8,286046995.6,Y
1624327915.6,286046998.5,P
1624327935.5,286047000.6,N
1624327955.3,286047002.5,N
1624327975.2,286047001.6,N
1624327995.9,286047001.8,N
1624328015.7,286047001.5,N
1624328035.6,286047001.5,N
1624328055.4,286047004.0,N
1624328075.2,286047004.4,N
1624328095.1,286047004.1,N
1624328096.0,286047004.1,N
1624328115.8,286047004.2,N
1624328135.7,286047003.8,N
1624328155.5,286047001.4,N
1624328175.3,286047004.4,N
1624328195.2,286047003.3,N
1624328215.9,286047003.0,N
1624328235.7,286047002.9,N
1624328255.6,286047005.6,N
1624328275.4,286047005.6,N
1624328295.3,286047003.0,N
1624328315.1,286047003.8,N
1624328316.0,286047003.8,N
1624328335.8,286047004.0,N
1624328355.7,286047003.8,N
1624328375.5,286047004.2,N
1624328395.3,286047003.7,N
1624328415.2,286047003.7,N
1624328435.0,286047001.7,N
1624328435.9,286047001.7,N
1624328455.8,286047001.7,N
1624328475.6,286047001.4,N
1624328495.4,286047004.4,Y
1624328515.3,286047000.8,P
1624328535.1,286047000.7,N
1624328555.9,286047000.4,N
1624328575.7,286047000.5,N
1624328595.5,286046998.2,N
1624328615.4,286047000.8,N
1624328635.2,286047000.6,N
1624328655.1,286047001.0,N
1624328656.0,286047001.0,N
1624328675.8,286047000.7,N
1624328695.6,286047000.5,N
1624328715.5,286047001.1,N
1624328735.3,286047000.8,N
1624328755.1,286046998.2,N
1624328775.9,286046998.5,N
1624328795.7,286047001.1,N
1624328815.6,286047000.8,N
1624328835.4,286047001.2,N
1624328855.2,286047000.9,N
1624328875.1,286046998.1,N
1624328876.0,286046998.1,N
1624328895.8,286046999.6,N
1624328915.7,286046998.9,N
1624328935.5,286046997.5,N
1624328955.3,286046997.0,N
1624328975.2,286046996.5,N
1624328995.9,286046999.1,N
1624329015.7,286046997.2,N
1624329035.6,286046996.5,N
1624329055.4,286046996.9,N
1624329075.2,286046996.6,N
1624329095.1,286046997.8,N
1624329096.0,286046997.8,N
1624329115.8,286046997.7,N
1624329135.7,286046997.5,N
1624329155.5,286046996.7,N
1624329175.3,286046996.8,N
1624329195.2,286046999.6,N
1624329215.0,286046999.5,N
1624329215.9,286046999.5,N
1624329235.8,286046999.4,N
1624329255.6,286046998.8,N
1624329275.4,286047001.1,N
1624329295.3,286046999.3,N
1624329315.1,286046998.6,N
1624329335.8,286046997.8,N
1624329355.7,286046996.9,N
1624329375.5,286046998.7,N
1624329395.4,286047001.2,N
1624329415.2,286047001.2,N
1624329435.0,286047000.7,N
1624329435.9,286047000.7,N
1624329455.8,286046998.1,N
1624329475.6,286047000.6,N
1624329495.5,286047000.5,N
1624329515.3,286047000.1,N
1624329535.1,286047001.9,N
1624329555.9,286047001.3,N
1624329575.7,286047001.5,N
1624329595.5,286047001.7,N
1624329615.4,286047003.2,N
1624329635.2,286047001.4,N
1624329655.1,286047002.6,N
1624329656.0,286047002.6,N
1624329675.8,286047001.6,N
1624329695.6,286047004.3,N
1624329715.5,286047001.4,N
1624329735.3,286047004.3,N
1624329755.1,286047004.2,N
1624329775.9,286047002.1,N
1624329795.7,286047001.6,N
1624329815.6,286047001.7,N
1624329835.4,286047001.3,N
1624329855.2,286047004.2,N
1624329875.1,286047004.0,N
1624329876.0,286047004.0,N
1624329895.8,286047001.6,N
1624329915.6,286047002.2,N
1624329935.5,286047001.5,N
1624329955.3,286047002.1,N
1624329975.2,286047001.8,N
1624329995.9,286047002.0,N
1624330015.7,286047001.9,N
1624330035.6,286047001.4,N
1624330055.4,286047001.6,N
1624330075.2,286047002.1,N
1624330095.1,286047001.8,N
1624330096.0,286047001.8,N
1624330145.9,286047001.5,E
1624330155.8,286047002.3,N
1624330175.6,286047002.4,P
1624330195.4,286047000.5,P
1624330215.3,286047002.8,Y
1624330235.1,286046998.1,P
1624330255.9,286047001.1,N
1624330275.7,286047000.4,N
1624330295.5,286047000.0,N
1624330315.4,286047011.9,Y
1624330335.2,286046998.7,P
1624330355.1,286046999.0,N
1624330356.0,286046999.0,N
1624330375.8,286047000.5,N
1624330395.6,286046998.6,N
1624330415.5,286046998.9,N
1624330435.3,286046996.6,Y
1624330455.1,286046996.8,P
1624330475.9,286046997.8,N
1624330495.7,286046995.6,P
1624330515.6,286046995.1,Y
1624330535.4,286046998.3,P
1624330555.2,286047000.6,N
1624330575.1,286046998.2,N
1624330576.0,286046998.2,N
1624330595.8,286046998.4,N
1624330615.7,286046998.4,N
1624330635.5,286046999.1,N
1624330655.3,286046997.5,N
1624330675.2,286046998.4,N
1624330695.0,286047000.5,N
1624330695.9,286047000.5,N
1624330715.7,286047000.8,N
1624330735.6,286047000.9,N
1624330755.4,286046998.7,N
1624330775.3,286046997.4,N
1624330795.1,286046999.0,N
